Location: Newark
(38.1089°N, 103.8675°W)
Time: 05:01:57
(UTC+00:00)

Envisat - Pass Details

Date: 19 December 2019
Orbit: 764 x 766 km, 98.1° (Epoch: 20 January)

Event Time Altitude Azimuth Distance (km) Brightness Sun altitude
Rises 01:57:41 0° 202° (SSW) 3,218 6.7 -26.7°
Reaches altitude 10° 02:00:33 10° 219° (SW) 2,297 6.0 -27.2°
Maximum altitude 02:04:16 20° 267° (W) 1,694 5.5 -27.9°
Drops below altitude 10° 02:08:01 10° 314° (NW) 2,308 5.9 -28.7°
Sets 02:10:54 0° 331° (NNW) 3,239 6.5 -29.2°
